STARLINK-36169

Last updated on Fri Dec 19 2025 00:02:08 GMT+0000 (Coordinated Universal Time)

1 66929U 25286E 25352.58336806 -.01274874 00000+0 -67346-2 0 9993 2 66929 53.1563 21.0619 0001067 52.0484 59.5331 15.82646260 2933
UTC large
Height (km)
Speed (km/s)
/
Latitude / Longitude
Inclination (degrees)
Orbital Period (minutes)
Azimuth
Elevation
Range (km)
Doppler Factor

Next 0 passes for location: London (51.5072 / 0.1276)

Sorry there are no passes over London.